Hebron, NE

3:43 AM CST on November 13, 2019 (GMT -0600)
Hebron Municipal

Weather History for KHJH - October, 2019

Change the Weather History Date:

Sunday, October 20, 2019

  Actual Average Record
Temperature  
Mean Temperature 54 °F -  
Max Temperature 64 °F 63 °F 85 °F (1958)
Min Temperature 46 °F 36 °F 20 °F (1972)
Degree Days  
Heating Degree Days 10    
Growing Degree Days 4 (Base 50)    
Moisture  
Dew Point 42 °F    
Average Humidity 63    
Maximum Humidity 82    
Minimum Humidity 42    
Precipitation  
Precipitation 0.00 in - - ()
Sea Level Pressure  
Sea Level Pressure 29.67 in    
Wind  
Wind Speed 10 mph (South)    
Max Wind Speed 26 mph    
Max Gust Speed 33 mph    
Visibility 10 miles    
Events      
Averages and records for this station are not official NWS values.
T = Trace of Precipitation, MM = Missing Value Source: NWS Daily Summary

Daily Weather History Graph

Daily Weather History Graph

Search for Another Location

Airport or City:

Astronomy

Oct. 20, 2019 Rise Set
Actual Time 7:46 AM CDT 6:43 PM CDT
Civil Twilight 7:18 AM CDT 7:11 PM CDT
Nautical Twilight 6:46 AM CDT 7:42 PM CDT
Astronomical Twilight 6:15 AM CDT 8:14 PM CDT
Moon 11:53 PM CDT (10/20) 2:15 PM CDT (10/20)
Length of Visible Light 11h 52m
Length of Day
10h 57m
Waning Gibbous, 59% of the Moon is Illuminated
Oct 20
Waning Gibbous
Oct 21
Last Quarter
Oct 27
New
Nov 4
First Quarter
Nov 12
Full

Hourly Weather History & Observations

Time (CDT) Temp. Dew Point Humidity Pressure Visibility Wind Dir Wind Speed Gust Speed Precip Events Conditions
12:15 AM 47.8 °F 37.8 °F 68% 29.79 in 10.0 mi South 4.6 mph - N/A   Clear
12:35 AM 46.9 °F 37.6 °F 70% 29.78 in 10.0 mi South 5.8 mph - N/A   Clear
12:55 AM 48.6 °F 37.8 °F 66% 29.78 in 10.0 mi South 8.1 mph - N/A   Clear
1:15 AM 48.9 °F 37.6 °F 65% 29.78 in 10.0 mi SSE 6.9 mph - N/A   Clear
1:35 AM 48.2 °F 37.6 °F 67% 29.77 in 10.0 mi SSE 5.8 mph - N/A   Clear
1:55 AM 48.2 °F 37.9 °F 68% 29.77 in 10.0 mi South 6.9 mph - N/A   Clear
2:15 AM 50.0 °F 38.3 °F 64% 29.76 in 10.0 mi South 8.1 mph - N/A   Clear
2:35 AM 49.8 °F 38.7 °F 65% 29.77 in 10.0 mi South 8.1 mph - N/A   Clear
2:55 AM 48.6 °F 38.8 °F 69% 29.76 in 10.0 mi South 6.9 mph - N/A   Clear
3:15 AM 48.2 °F 38.8 °F 70% 29.76 in 10.0 mi South 5.8 mph - N/A   Clear
3:35 AM 48.2 °F 39.2 °F 71% 29.76 in 10.0 mi South 6.9 mph - N/A   Clear
3:55 AM 47.8 °F 39.2 °F 72% 29.76 in 10.0 mi South 8.1 mph - N/A   Clear
4:15 AM 48.4 °F 39.2 °F 71% 29.76 in 10.0 mi South 8.1 mph - N/A   Clear
4:35 AM 49.1 °F 39.4 °F 69% 29.76 in 10.0 mi South 8.1 mph - N/A   Clear
4:55 AM 49.1 °F 39.6 °F 70% 29.75 in 10.0 mi South 6.9 mph - N/A   Clear
5:15 AM 49.1 °F 40.3 °F 72% 29.74 in 10.0 mi SSE 8.1 mph - N/A   Clear
5:35 AM 49.3 °F 40.3 °F 71% 29.73 in 10.0 mi SSE 6.9 mph - N/A   Clear
5:55 AM 48.0 °F 40.5 °F 75% 29.73 in 10.0 mi SE 9.2 mph - N/A   Clear
6:15 AM 49.1 °F 41.0 °F 74% 29.72 in 10.0 mi SE 9.2 mph - N/A   Clear
6:35 AM 50.2 °F 41.5 °F 72% 29.71 in 10.0 mi SSE 12.7 mph 18.4 mph N/A   Clear
6:55 AM 51.3 °F 41.9 °F 70% 29.71 in 10.0 mi SSE 13.8 mph - N/A   Clear
7:15 AM 51.4 °F 42.6 °F 72% 29.70 in 10.0 mi SSE 13.8 mph - N/A   Clear
7:35 AM 50.9 °F 43.5 °F 76% 29.70 in 10.0 mi SSE 12.7 mph 17.3 mph N/A   Clear
7:55 AM 50.4 °F 44.1 °F 79% 29.70 in 10.0 mi SSE 12.7 mph 17.3 mph N/A   Clear
8:15 AM 51.3 °F 45.7 °F 81% 29.69 in 10.0 mi SSE 12.7 mph - N/A   Clear
8:35 AM 52.5 °F 47.3 °F 82% 29.71 in 10.0 mi South 11.5 mph 17.3 mph N/A   Clear
8:55 AM 54.0 °F 48.2 °F 81% 29.71 in 10.0 mi South 11.5 mph 20.7 mph N/A   Scattered Clouds
9:15 AM 55.8 °F 48.9 °F 78% 29.69 in 10.0 mi SSE 19.6 mph 27.6 mph N/A   Scattered Clouds
9:35 AM 57.2 °F 49.1 °F 74% 29.69 in 10.0 mi SSE 20.7 mph 25.3 mph N/A   Clear
9:55 AM 57.7 °F 49.1 °F 73% 29.69 in 10.0 mi SSE 20.7 mph 29.9 mph N/A   Clear
10:15 AM 59.0 °F 49.1 °F 70% 29.69 in 10.0 mi SSE 21.9 mph 29.9 mph N/A   Scattered Clouds
10:35 AM 58.3 °F 49.1 °F 71% 29.69 in 10.0 mi SSE 13.8 mph 23.0 mph N/A   Mostly Cloudy
10:55 AM 58.3 °F 49.1 °F 71% 29.69 in 10.0 mi SSE 18.4 mph 21.9 mph N/A   Overcast
11:15 AM 59.0 °F 48.9 °F 69% 29.69 in 10.0 mi South 17.3 mph 26.5 mph N/A   Mostly Cloudy
11:35 AM 58.1 °F 49.1 °F 72% 29.70 in 10.0 mi South 15.0 mph 21.9 mph N/A   Overcast
11:55 AM 59.2 °F 49.5 °F 70% 29.70 in 10.0 mi South 16.1 mph 19.6 mph N/A   Overcast
12:15 PM 59.4 °F 49.5 °F 70% 29.68 in 10.0 mi SSE 15.0 mph 23.0 mph N/A   Mostly Cloudy
12:35 PM 60.3 °F 49.1 °F 67% 29.66 in 10.0 mi SSE 19.6 mph 25.3 mph N/A   Scattered Clouds
12:55 PM 60.1 °F 48.2 °F 65% 29.64 in 10.0 mi SSE 20.7 mph 33.4 mph N/A   Clear
1:15 PM 60.8 °F 47.7 °F 62% 29.64 in 10.0 mi SSE 21.9 mph 33.4 mph N/A   Clear
1:35 PM 61.7 °F 47.1 °F 59% 29.62 in 10.0 mi SSE 26.5 mph 31.1 mph N/A   Clear
1:55 PM 61.9 °F 46.4 °F 57% 29.60 in 10.0 mi SSE 23.0 mph 32.2 mph N/A   Scattered Clouds
2:15 PM 62.8 °F 46.2 °F 55% 29.60 in 10.0 mi SSE 16.1 mph 29.9 mph N/A   Scattered Clouds
2:35 PM 63.5 °F 45.7 °F 52% 29.61 in 10.0 mi South 19.6 mph 27.6 mph N/A   Clear
2:55 PM 62.8 °F 46.4 °F 55% 29.60 in 10.0 mi South 17.3 mph 29.9 mph N/A   Mostly Cloudy
3:15 PM 62.4 °F 46.9 °F 57% 29.60 in 10.0 mi SSE 18.4 mph 24.2 mph N/A   Overcast
3:35 PM 62.2 °F 47.5 °F 58% 29.60 in 10.0 mi South 16.1 mph 20.7 mph N/A   Overcast
3:55 PM 61.9 °F 47.8 °F 60% 29.59 in 10.0 mi SSE 11.5 mph 23.0 mph N/A   Overcast
4:15 PM 61.9 °F 48.0 °F 60% 29.59 in 10.0 mi SSE 10.4 mph 17.3 mph N/A   Overcast
4:35 PM 61.9 °F 48.2 °F 61% 29.59 in 10.0 mi SSE 10.4 mph - N/A   Overcast
4:55 PM 61.9 °F 48.4 °F 61% 29.58 in 10.0 mi SSE 9.2 mph - N/A   Overcast
5:15 PM 61.9 °F 49.1 °F 63% 29.59 in 10.0 mi South 5.8 mph - N/A   Overcast
5:35 PM 63.0 °F 49.6 °F 62% 29.59 in 10.0 mi SSW 6.9 mph - N/A   Overcast
5:55 PM 63.5 °F 47.3 °F 56% 29.59 in 10.0 mi SSW 11.5 mph 17.3 mph N/A   Mostly Cloudy
6:15 PM 63.1 °F 46.9 °F 55% 29.59 in 10.0 mi SSW 8.1 mph - N/A   Mostly Cloudy
6:35 PM 61.2 °F 46.9 °F 60% 29.59 in 10.0 mi SW 5.8 mph - N/A   Scattered Clouds
6:55 PM 59.9 °F 39.6 °F 47% 29.60 in 10.0 mi WSW 9.2 mph - N/A   Scattered Clouds
7:15 PM 58.5 °F 37.6 °F 46% 29.60 in 10.0 mi SW 5.8 mph - N/A   Clear
7:35 PM 56.3 °F 36.5 °F 47% 29.61 in 10.0 mi SW 6.9 mph - N/A   Clear
7:55 PM 54.5 °F 36.1 °F 50% 29.61 in 10.0 mi WSW 5.8 mph - N/A   Clear
8:15 PM 52.0 °F 36.7 °F 56% 29.59 in 10.0 mi WNW 5.8 mph - N/A   Clear
8:35 PM 52.2 °F 36.0 °F 54% 29.60 in 10.0 mi SW 3.5 mph - N/A   Scattered Clouds
8:55 PM 52.0 °F 33.3 °F 49% 29.61 in 10.0 mi WSW 5.8 mph - N/A   Scattered Clouds
9:15 PM 51.8 °F 31.5 °F 46% 29.61 in 10.0 mi SW 3.5 mph - N/A   Clear
9:35 PM 50.5 °F 32.0 °F 49% 29.61 in 10.0 mi SSW 3.5 mph - N/A   Clear
9:55 PM 51.6 °F 31.1 °F 45% 29.59 in 10.0 mi SSW 5.8 mph - N/A   Clear
10:15 PM 49.8 °F 32.4 °F 51% 29.58 in 10.0 mi West 5.8 mph - N/A   Clear
10:35 PM 51.4 °F 31.1 °F 46% 29.60 in 10.0 mi SW 6.9 mph - N/A   Clear
10:55 PM 52.9 °F 30.2 °F 42% 29.59 in 10.0 mi WSW 10.4 mph - N/A   Clear
11:15 PM 52.7 °F 31.5 °F 44% 29.57 in 10.0 mi West 8.1 mph - N/A   Clear
11:35 PM 52.5 °F 32.9 °F 47% 29.56 in 10.0 mi West 11.5 mph 16.1 mph N/A   Clear
11:55 PM 51.4 °F 34.0 °F 51% 29.55 in 10.0 mi West 5.8 mph - N/A   Clear